Regional Weather Roundup
Issued by NWS

Home | Current Version | Previous Version | Graphics & Text | Print | Product List | Glossary On
Versions: 1 2 3 4 5 6 7 8 9 10 11 12 13 14 15 16 17 18 19 20 21 22 23 24 25 26 27 28 29 30 31 32 33 34 35 36 37 38 39 40 41 42 43 44 45 46 47 48 49 50
000
ASUS43 KFSD 201102
RWRSD

WEATHER ROUNDUP FOR SOUTH DAKOTA
NATIONAL WEATHER SERVICE SIOUX FALLS SD
500 AM CST FRI JAN 20 2017

NOTE: "FAIR" INDICATES FEW OR NO CLOUDS BELOW 12,000 FEET WITH NO
SIGNIFICANT WEATHER AND/OR OBSTRUCTIONS TO VISIBILITY.


SDZ001>005-009-010-012>017-201200-
NORTHWEST AND NORTH CENTRAL SOUTH DAKOTA

CITY           SKY/WX    TMP DP  RH WIND       PRES   REMARKS
FAITH            N/A     20  17  88 NW13      29.37S WCI   7
MOBRIDGE       FOG       24  21  88 NW5       29.38F VSB 1/2 WCI  18
$$

SDZ012>016-024>037-041>051-057-063-072>074-201200-
SOUTHWEST AND SOUTH CENTRAL SOUTH DAKOTA

CITY           SKY/WX    TMP DP  RH WIND       PRES   REMARKS
RAPID CTY ARPT CLOUDY    28  19  69 NW9       29.37F WCI  19
PIERRE         FOG       19  18  95 W5        29.40F VSB 1/4 WCI  12
CUSTER         CLOUDY    27  16  63 W3        29.37F
ELLSWORTH AFB  CLOUDY    30  21  69 N10       29.37F WCI  21
PHILIP         CLOUDY    12  10  92 W8        29.39F WCI   0
PINE RIDGE     CLOUDY    28  22  78 W8        29.40F WCI  20
SPEARFISH      FAIR      30  21  69 W8        29.42S WCI  23
WINNER         FAIR      30  27  88 SW7       29.39F WCI  23
$$

SDZ004>011-016>023-039-040-201200-
NORTHEAST SOUTH DAKOTA

CITY           SKY/WX    TMP DP  RH WIND       PRES   REMARKS
ABERDEEN       CLOUDY    34  32  92 SE8       29.45F FOG     WCI  27
WATERTOWN      CLOUDY    35  35 100 SE10      29.48F WCI  27
BROOKINGS      CLOUDY    35  35 100 SE10      29.49F FOG     WCI  27
$$

SDZ017-020-022-023-036>040-048>070-201200-
SOUTHEAST SOUTH DAKOTA

CITY           SKY/WX    TMP DP  RH WIND       PRES   REMARKS
SIOUX FALLS    CLOUDY    37  37 100 SE8       29.51F FOG
HURON          CLOUDY    37  37 100 S9        29.43F
CHAMBERLAIN    PTCLDY    34  33  97 S5        29.40F WCI  30
MITCHELL       CLOUDY    38  38 100 SE8       29.46F
YANKTON        CLOUDY    37  36  93 E10       29.48F
$$

ABBREVIATIONS USED IN REMARKS
   TC - TEMPERATURE IN CELSIUS
  WCI - WIND CHILL INDEX
   HX - HEAT INDEX
  VSB - VISIBILITY





USA.gov is the U.S. government's official web portal to all federal, state and local government web resources and services.